Lexington Weather

Lexington, Massachusetts, USA

47°F
10/22/2019 2:27am 
  • Lexington Conditions: Mostly cloudy
  • Temperature: 46.6°F / 8.1°CWarmer 1.3°F than last hour.
  • Dew Point: 45.0°FIncreased 1.8°Fsince last hour.
  • Relative Humidity: 94%Increased 2.0% since last hour.
  • Wind: Calm, 10-min avg: Calm, gust: None
  • Barometer: 30.12 in Steady
  • Visibility: 9 miles
  • Rain Today: 0.00 in
  •   

Regional Weather Roundup
for Boston, MA

        
000
ASUS41 KBOX 191800
RWRBOX

REGIONAL WEATHER ROUNDUP
NATIONAL WEATHER SERVICE BOSTON/NORTON MA
200 PM EDT SAT OCT 19 2019

NOTE:  "FAIR" INDICATES FEW OR NO CLOUDS BELOW 12,000 FEET WITH NO 
SIGNIFICANT WEATHER AND/OR OBSTRUCTIONS TO VISIBILITY.

MAZALL-191900-
EASTERN MASSACHUSETTS
  
CITY           SKY/WX    TMP DP  RH WIND       PRES   REMARKS
BOSTON         FAIR      59  34  39 W9        29.98F                  
6HR MIN TEMP:  46; 6HR MAX TEMP:  59;                                

BEVERLY        FAIR      57  36  45 VRB5      29.97F                  
LAWRENCE       FAIR      56  34  43 W8        29.99F                  
BEDFORD        FAIR      60  33  36 NW10      29.97F                  
BLUE HILL      NOT AVBL                                               
NORWOOD        FAIR      60  36  40 W6        29.98F                  
MARSHFIELD     NOT AVBL                                               
PLYMOUTH       FAIR      55  37  50 CALM      29.98F                  
TAUNTON        FAIR      59  35  40 N6        29.98F                  
NEW BEDFORD    FAIR      56  35  45 W12       29.99F                  
$$

MAZALL-191900-
CAPE COD AND THE ISLANDS
  
CITY           SKY/WX    TMP DP  RH WIND       PRES   REMARKS
FALMOUTH       SUNNY     55  36  47 NW9       30.00F                  
HYANNIS        NOT AVBL                                               
CHATHAM        NOT AVBL                                               
PROVINCETOWN   FAIR      52  39  61 NW6         N/A                   
NANTUCKET      FAIR      54  40  59 SW15      30.01F                  
MARTHAS VNYRD  FAIR      55  37  50 W8        30.01S                  
$$
 
MAZALL-191900-
CENTRAL AND WESTERN MASSACHUSETTS
  
CITY           SKY/WX    TMP DP  RH WIND       PRES   REMARKS
WORCESTER      FAIR      53  35  50 W10       29.98F                  
6HR MIN TEMP:  36; 6HR MAX TEMP:  53;                                

FITCHBURG      FAIR      58  32  37 CALM      29.99F                  
ORANGE         FAIR      56  32  40 NW8       30.00F                  
SPRINGFIELD    MOSUNNY   58  33  39 NW3       29.99F                  
WESTFIELD      FAIR      60  32  34 SW7       29.99F                  
NORTH ADAMS    FAIR      53  32  44 VRB7      30.02F                  
PITTSFIELD     FAIR      53  34  48 NW13      30.00F                  
$$
 
RIZALL-191900-
RHODE ISLAND
  
CITY           SKY/WX    TMP DP  RH WIND       PRES   REMARKS
PROVIDENCE     FAIR      57  36  45 VRB6      30.00F                  
6HR MIN TEMP:  40; 6HR MAX TEMP:  58;                                

NEWPORT        FAIR      56  36  47 VRB6      30.00F                  
BLOCK ISLAND   FAIR      53  37  54 W9G17     30.03F                  
SMITHFIELD     FAIR     N/A N/A N/A W6        29.99F                  
WESTERLY       FAIR      58  41  53 SW10      30.02F                  
$$
 
CTZALL-191900-
CONNECTICUT
  
CITY           SKY/WX    TMP DP  RH WIND       PRES   REMARKS
BRADLEY INTL   FAIR      62  34  35 VRB3      29.99F                  
6HR MIN TEMP:  38; 6HR MAX TEMP:  62;                                

HARTFORD       FAIR      59  37  44 S8        30.00F                  
BRIDGEPORT     FAIR      57  40  52 SW13      30.03F                  
DANBURY        FAIR      57  35  43 W7        30.03F                  
GROTON         NOT AVBL                                               
NEW HAVEN      FAIR      59  42  53 S8        30.02F                  
CHESTER        NOT AVBL                                               
MERIDEN        FAIR      59  36  42 W6        30.01F                  
WILLIMANTIC    FAIR      57  34  41 NW8       30.02F                  
OXFORD         FAIR      56  36  47 VRB3      30.02F                  
$$

MEZ002-015-021-024-NHZ003-005-008-011-012-014-VTZ005-008-191900-
NORTHERN NEW ENGLAND
  
CITY           SKY/WX    TMP DP  RH WIND       PRES   REMARKS
PORTLAND ME    FAIR      57  35  43 NW12      29.95F                  
6HR MIN TEMP:  41; 6HR MAX TEMP:  58;                                

BANGOR ME      FAIR      56  35  45 NW13G20   29.90R                  
CONCORD NH     FAIR      56  31  38 NW8       29.97F                  
MANCHESTER NH  FAIR      58  31  35 NW6       29.97F                  
NASHUA NH      FAIR      57  33  40 NW5       29.98F                  
PORTSMOUTH NH  SUNNY     58  33  40 SW5       29.95F                  
JAFFREY NH     FAIR      54  31  41 W6        29.98F                  
KEENE NH       FAIR      56  32  40 N6        29.99F                  
BURLINGTON VT  FAIR      51  32  48 VRB5      30.04F                  
MT. WASHINGTON PTSUNNY   27   3  36 NW40G47     N/A  WCI   8          
$$

NYZ052-076-191900-
EASTERN NEW YORK
  
CITY           SKY/WX    TMP DP  RH WIND       PRES   REMARKS
ALBANY         FAIR      57  35  43 NW6       30.04F                  
6HR MIN TEMP:  38; 6HR MAX TEMP:  57;                                

NEW YORK CITY  FAIR      59  34  39 W6        30.04F                  
6HR MIN TEMP:  48; 6HR MAX TEMP:  59;                                

$$
 
ANZALL-191900-
MARINE OBSERVATIONS
  
STATION/POSITION TIME  TEMP    WIND        PRES    VSBY  WAVE
                       AIR SEA DIR/SP/G                  HT/PER
                 (UTC) (F)     (DEG/KT/KT) (MB)    (MI)  (FT/S)
BOSTON BUOY      1650   50 56  260/  8/ 10 1015.2          2/ 9
BUZZARDS BAY     1700   50     280/ 10/ 12 1017.1F
NANTUCKET SOUND  1740      57                N/A
MASS BAY-STELLWA 1704   51 56  240/  6/  8 1015.1F  1 7/8  1/ 4
ISLE OF SHOALS   1700   51     270/  5/  6 1014.7F
S OF BLOCK IS    1730      60                N/A           2/ 4
$$

......................KEY.........................
  SKY/WX - SKY CONDITION/PRESENT WEATHER
  TMP    - TEMPERATURE IN FAHRENHEIT
  DWPT   - DEWPOINT IN FAHRENHEIT
  RH     - RELATIVE HUMIDITY IN PERCENT
  WIND   - DIRECTION AND SPEED IN MPH
  PRES   - MEAN SEA LEVEL PRESSURE IN INCHES OF HG
  WCI    - WIND CHILL INDEX
  VSB    - VISIBILITY IN MILES
  HX     - HEAT INDEX
  TC     - TEMPERATURE IN CELSIUS
  VRB    - VARIABLE WIND DIRECTION
  N/A    - NOT AVAILABLE
  
      

Other recent Regional Weather Roundups

Tue Oct 22, 2:10am

Tue Oct 22, 2:00am

Tue Oct 22, 1:10am

Tue Oct 22, 1:00am

Tue Oct 22, 12:10am

Tue Oct 22, 12:00am

Mon Oct 21, 11:10pm

Mon Oct 21, 11:00pm

Mon Oct 21, 10:10pm

Mon Oct 21, 10:01pm

Mon Oct 21, 9:10pm

Mon Oct 21, 9:00pm

Mon Oct 21, 8:10pm

Mon Oct 21, 8:00pm

Mon Oct 21, 7:10pm

Mon Oct 21, 7:01pm

Mon Oct 21, 6:10pm

Mon Oct 21, 6:01pm

Mon Oct 21, 5:10pm

Mon Oct 21, 5:01pm

Mon Oct 21, 4:10pm

Mon Oct 21, 4:00pm

Mon Oct 21, 3:10pm

Mon Oct 21, 3:01pm

Mon Oct 21, 2:10pm

Mon Oct 21, 2:00pm

Mon Oct 21, 1:10pm

Mon Oct 21, 1:01pm

Mon Oct 21, 12:10pm

Mon Oct 21, 12:00pm

Mon Oct 21, 11:10am

Mon Oct 21, 11:00am

Mon Oct 21, 10:10am

Mon Oct 21, 10:00am

Mon Oct 21, 9:10am

Mon Oct 21, 9:00am

Mon Oct 21, 7:10am

Mon Oct 21, 7:00am

Mon Oct 21, 6:10am

Mon Oct 21, 6:00am

Mon Oct 21, 5:10am

Mon Oct 21, 5:00am

Mon Oct 21, 4:10am

Mon Oct 21, 4:00am

Mon Oct 21, 3:10am

Mon Oct 21, 3:00am

Mon Oct 21, 2:10am

Mon Oct 21, 2:01am

Mon Oct 21, 1:10am

Mon Oct 21, 1:00am

Mon Oct 21, 12:10am

Mon Oct 21, 12:00am

Sun Oct 20, 11:10pm

Sun Oct 20, 11:00pm

Sun Oct 20, 10:10pm

Sun Oct 20, 10:00pm

Sun Oct 20, 9:10pm

Sun Oct 20, 9:01pm

Sun Oct 20, 8:10pm

Sun Oct 20, 8:00pm

Sun Oct 20, 7:10pm

Sun Oct 20, 7:01pm

Sun Oct 20, 6:10pm

Sun Oct 20, 6:00pm

Sun Oct 20, 5:10pm

Sun Oct 20, 5:00pm

Sun Oct 20, 4:10pm

Sun Oct 20, 4:00pm

Sun Oct 20, 3:10pm

Sun Oct 20, 3:00pm

Sun Oct 20, 2:10pm

Sun Oct 20, 2:01pm

Sun Oct 20, 1:10pm

Sun Oct 20, 1:01pm

Sun Oct 20, 12:10pm

Sun Oct 20, 12:00pm

Sun Oct 20, 11:10am

Sun Oct 20, 11:00am

Sun Oct 20, 10:10am

Sun Oct 20, 10:00am

Sun Oct 20, 9:10am

Sun Oct 20, 9:00am

Sun Oct 20, 8:10am

Sun Oct 20, 8:00am

Sun Oct 20, 7:10am

Sun Oct 20, 7:00am

Sun Oct 20, 6:10am

Sun Oct 20, 6:00am

Sun Oct 20, 5:10am

Sun Oct 20, 5:00am

Sun Oct 20, 4:10am

Sun Oct 20, 4:00am

Sun Oct 20, 3:10am

Sun Oct 20, 3:00am

Sun Oct 20, 2:10am

Sun Oct 20, 2:00am

Sun Oct 20, 1:10am

Sun Oct 20, 1:00am

Sun Oct 20, 12:10am

Sun Oct 20, 12:00am

Sat Oct 19, 11:10pm

Sat Oct 19, 11:00pm

Sat Oct 19, 10:10pm

Sat Oct 19, 10:00pm

Sat Oct 19, 9:10pm

Sat Oct 19, 9:00pm

Sat Oct 19, 8:10pm

Sat Oct 19, 8:00pm

Sat Oct 19, 7:10pm

Sat Oct 19, 7:00pm

Sat Oct 19, 6:10pm

Sat Oct 19, 6:00pm

Sat Oct 19, 5:10pm

Sat Oct 19, 5:00pm

Sat Oct 19, 4:10pm

Sat Oct 19, 4:00pm

Sat Oct 19, 3:10pm

Sat Oct 19, 3:01pm

Sat Oct 19, 2:10pm

Sat Oct 19, 1:10pm

Sat Oct 19, 1:01pm

Sat Oct 19, 12:10pm

Sat Oct 19, 12:00pm

Sat Oct 19, 11:10am

Sat Oct 19, 11:01am

Sat Oct 19, 10:10am

Sat Oct 19, 10:00am

Sat Oct 19, 9:10am

Sat Oct 19, 9:00am

Sat Oct 19, 8:10am

Sat Oct 19, 8:00am

Sat Oct 19, 7:10am

Sat Oct 19, 7:00am

Sat Oct 19, 6:10am

Sat Oct 19, 6:00am

Sat Oct 19, 5:10am

Sat Oct 19, 5:00am

Sat Oct 19, 4:10am

Sat Oct 19, 4:00am

Sat Oct 19, 3:10am

Sat Oct 19, 3:00am

Meta data:

ID: 48f25f16-59a3-4cf2-964b-890a081a46dd
Link: https://api.weather.gov/products/48f25f16-59a3-4cf2-964b-890a081a46dd